Wetbulb
57.37 56.70 56.36 55.61 55.69 55.63 54.75 55.03 57.32 59.08 59.29 59.02 58.34 59.28 60.34 60.77 61.05 61.83 61.43 63.16 65.37 65.55
55.19 54.84 53.91 54.47 54.10 52.30 52.04 52.62 52.44 52.14 50.66 51.93 52.31 53.34 55.08 55.15 56.66 57.56 58.36 58.80 59.58 62.23
54.90 55.14 54.87 53.67 53.08 52.62 52.36 50.88 50.47 50.05 50.23 50.39 50.37 50.97 51.04 51.09 51.97 52.03 52.54 53.14 53.24 54.15
54.14 54.10 53.27 52.55 51.44 51.12 51.40 50.80 50.03 49.76 49.12 49.09 49.70 49.70 49.96 49.80 49.63 49.69 50.18 50.64 50.92 51.27
52.01 52.27 51.64 51.01 50.85 51.16 49.75 49.71 49.10 48.89 48.59 48.50 48.47 48.87 48.62 47.70 48.34 48.22 48.31 49.27 49.71 50.44
51.11 50.76 50.42 50.53 50.03 50.29 49.79 49.28 49.32 48.59 47.97 47.78 47.98 47.50 47.25 46.71 46.30 45.96 46.12 46.35 46.87 47.52
50.06 49.99 49.85 50.34 50.08 49.38 49.15 48.57 48.42 48.28 47.73 47.82 47.82 47.55 46.77 45.92 45.50 45.39 46.04 46.50 47.57 47.77
51.61 50.74 49.81 49.73 49.54 49.28 48.78 48.37 48.02 47.27 46.71 46.73 46.73 47.01 46.25 45.95 45.22 45.07 45.32 46.68 47.73 48.48
50.36 50.72 51.02 50.50 49.97 48.91 48.65 48.04 47.61 47.62 46.72 45.62 45.89 46.55 46.37 46.25 46.21 46.68 46.75 46.43 48.07 49.42
48.21 48.96 49.37 49.31 48.63 48.60 48.06 48.57 48.49 48.61 47.72 47.91 48.05 46.08 46.20 46.11 45.94 46.12 47.01 47.48 48.12 48.61
47.93 48.50 48.02 48.07 47.59 47.58 48.19 48.42 49.06 48.60 49.26 49.35 47.65 46.11 45.88 47.22 48.58 48.81 49.26 48.82 49.47 49.55
49.22 47.66 47.77 47.44 47.68 47.14 46.89 47.34 48.50 49.85 48.36 47.53 47.27 45.74 45.83 46.61 47.71 47.98 47.98 48.80 50.11 48.79
49.80 47.86 47.58 49.27 48.11 46.86 46.62 46.70 46.98 47.78 48.65 47.58 48.37 45.32 44.75 45.92 48.47 47.65 48.16 48.34 49.00 49.10
50.44 49.16 48.12 49.45 47.83 46.52 46.64 46.87 46.54 46.38 47.03 47.42 48.73 46.75 43.79 43.97 47.62 47.59 47.65 47.45 48.16 48.61
MSLP
1016.27 1016.41 1016.46 1016.81 1016.76 1016.48 1016.60 1016.00 1015.59 1015.36 1015.48 1015.78 1015.81 1015.49 1015.42 1016.18 1015.90 1016.56 1016.82 1016.38 1016.21 1016.58
1016.72 1016.75 1016.98 1016.94 1016.97 1017.11 1017.32 1017.25 1016.85 1016.53 1016.27 1016.51 1016.61 1016.49 1016.56 1016.29 1016.80 1016.65 1017.01 1017.07 1017.11 1017.01
1016.98 1017.19 1017.28 1017.33 1017.70 1017.83 1017.77 1017.56 1017.43 1017.44 1017.32 1017.51 1017.34 1017.22 1017.16 1017.36 1017.55 1017.23 1017.08 1017.44 1017.51 1017.62
1017.19 1017.34 1017.58 1017.82 1017.88 1017.95 1018.12 1018.11 1017.97 1017.89 1017.79 1018.23 1017.93 1017.69 1018.00 1017.90 1018.11 1018.24 1017.89 1018.06 1017.63 1017.75
1017.57 1017.62 1017.79 1017.94 1018.05 1018.12 1018.29 1018.41 1018.47 1018.65 1018.75 1018.74 1018.66 1018.49 1018.23 1018.20 1018.64 1018.53 1018.55 1018.31 1018.61 1018.46
1017.82 1017.96 1018.01 1018.01 1018.17 1018.15 1018.22 1018.42 1018.55 1018.69 1018.80 1018.87 1018.85 1018.86 1018.79 1019.02 1019.24 1019.12 1018.75 1018.75 1018.93 1019.04
1018.01 1018.21 1018.33 1018.38 1018.48 1018.62 1018.60 1018.62 1018.78 1019.02 1019.02 1019.07 1019.13 1019.17 1019.37 1019.48 1019.51 1019.22 1019.12 1019.12 1019.29 1019.51
1017.68 1018.15 1018.53 1018.56 1018.47 1018.64 1018.75 1018.99 1019.07 1019.34 1019.54 1019.53 1019.51 1019.62 1019.71 1019.63 1019.75 1019.42 1019.37 1019.31 1019.35 1019.43
1018.04 1018.12 1018.26 1018.46 1018.60 1018.76 1018.92 1018.83 1019.15 1019.31 1019.59 1019.75 1019.60 1019.86 1019.85 1019.85 1019.77 1019.57 1019.66 1019.43 1019.47 1019.57
1018.17 1018.21 1018.40 1018.57 1018.75 1018.83 1018.93 1018.99 1018.81 1019.08 1019.35 1019.35 1019.37 1019.87 1019.99 1019.91 1019.82 1019.77 1019.66 1019.59 1019.56 1019.59
1018.04 1018.05 1018.39 1018.69 1018.80 1018.83 1018.84 1018.78 1018.73 1018.83 1018.80 1019.08 1019.34 1019.82 1020.11 1020.17 1019.92 1019.77 1019.71 1019.71 1019.61 1019.67
1017.79 1018.01 1018.18 1018.36 1018.67 1018.95 1018.83 1018.91 1018.41 1018.51 1018.93 1019.09 1019.28 1019.75 1020.05 1020.14 1019.95 1019.93 1019.91 1019.92 1019.88 1020.28
1017.63 1017.93 1018.10 1017.98 1018.41 1018.87 1018.96 1019.03 1019.14 1019.15 1019.07 1019.40 1019.30 1019.75 1019.91 1020.26 1020.19 1020.09 1019.99 1020.23 1020.39 1020.49
1017.25 1017.66 1017.93 1017.95 1018.33 1018.68 1018.80 1019.06 1019.18 1019.15 1019.17 1019.43 1019.49 1019.68 1019.78 1019.89 1020.41 1020.43 1020.21 1019.83 1020.06 1020.14
Wind_Speed
10 6 6 7 6 4 4 6 6 3 4 3 4 3 3 1 2 2 4 5 2 2
8 9 8 8 6 5 5 5 6 7 8 7 7 6 6 3 1 3 2 3 4 2
6 7 6 7 7 6 5 5 5 6 5 4 4 5 5 3 4 4 4 3 5 4
7 6 7 7 6 5 5 5 5 5 5 3 3 4 4 5 4 5 6 4 6 6
6 6 7 6 5 5 6 5 5 4 4 4 4 3 4 7 5 6 6 7 7 6
4 4 4 5 5 6 5 5 5 5 5 5 4 6 7 7 7 7 8 8 8 8
3 3 4 4 5 5 4 5 6 5 6 5 5 6 7 7 6 6 6 6 7 7
7 5 2 2 3 3 4 3 4 5 4 4 4 4 5 5 5 5 5 5 4 5
6 4 3 3 3 3 2 5 5 6 6 5 4 8 9 6 4 4 4 5 3 4
2 2 2 1 2 3 3 5 7 6 7 7 7 11 8 8 3 4 4 4 4 5
3 2 2 3 2 1 2 4 6 6 8 5 7 12 8 8 4 3 3 4 4 4
5 2 4 5 5 1 3 4 3 1 5 5 7 10 11 8 5 6 4 4 2 4
5 5 6 5 5 3 2 1 3 2 4 3 5 8 7 6 3 2 1 2 5 5
7 7 5 2 5 4 2 2 4 3 2 2 4 7 8 7 4 5 7 4 4 3
Wind_Direction
23 31 24 32 13 350 343 359 5 44 26 18 25 36 133 169 140 276 312 311 200 211
27 24 34 23 39 29 17 3 3 18 34 45 32 39 20 64 59 77 27 340 333 284
35 42 35 28 55 40 42 42 40 40 43 33 47 51 78 58 24 101 108 96 76 52
40 43 47 52 55 49 65 56 42 50 50 25 66 74 76 83 76 77 59 48 87 76
60 57 63 72 76 82 80 75 84 80 77 69 66 64 91 84 73 87 87 86 67 51
80 90 95 90 95 87 100 111 110 103 98 92 94 96 89 94 92 82 72 68 69 62
75 71 79 84 79 73 66 78 85 76 73 82 80 97 101 107 97 90 85 83 79 73
140 138 125 115 123 119 123 111 113 116 106 104 106 111 119 118 130 121 110 97 101 108
79 70 185 162 143 172 179 157 176 169 166 180 156 141 141 140 143 140 152 141 139 138
129 176 119 126 192 222 246 260 208 185 199 205 159 167 167 168 164 169 169 175 178 168
214 227 231 233 208 247 244 284 234 216 199 194 146 177 200 232 285 222 212 185 173 110
233 185 239 227 209 191 46 352 11 186 132 200 151 173 190 213 225 179 180 140 107 114
186 188 240 243 196 175 185 355 352 329 117 49 171 174 188 183 72 322 326 256 209 198
174 192 238 205 190 193 214 242 224 233 288 165 242 177 187 161 178 222 227 209 190 211